NOAA-15
1 25338U 98030A   06124.19646995  .00000023  00000-0  27967-4 0  4998
2 25338 098.5163 127.8134 0011063 138.1019 222.1017 14.24575613414456
RESURS
1 25394U 98043A   06123.80998743 -.00000013  00000-0  12638-4 0  3585
2 25394 098.4948 188.1912 0001242 345.0173 015.0969 14.24098332406083
FENGYUN1
1 25730U 99025A   06124.46542378  .00000243  00000-0  15607-3 0  7195
2 25730 098.6255 118.6704 0013574 264.9352 095.0265 14.11811197359842
OKEAN-0
1 25860U 99039A   06123.59202088  .00000120  00000-0  25787-4 0  7373
2 25860 097.7354 140.0021 0000521 070.2900 289.8360 14.73358064365182
NOAA-16
1 26536U 00055A   06124.43499142  .00000077  00000-0  66445-4 0  8678
2 26536 099.0636 090.5474 0009734 242.6453 117.3718 14.12337005289402
NOAA-17
1 27453U 02032A   06124.45987306  .00000181  00000-0  98291-4 0  8894
2 27453 098.6215 197.5174 0011596 198.2301 161.8477 14.23773658200556
NOAA-18
1 28654U 05018A   06124.45375026  .00000229  00000-0  15149-3 0  4692
2 28654 098.7846 068.6707 0014523 349.0430 011.0414 14.10955713 49214
HUBBLE
1 20580U 90037B   06123.91712918  .00000708  00000-0  42514-4 0 06042
2 20580 028.4684 338.4764 0003672 078.5170 281.5830 15.00023911678448
UARS
1 21701U 91063B   06124.47045598  .00010072  00000-0  18650-3 0  7592
2 21701 056.9754 280.8344 0110394 124.2630 236.8872 15.43268259802555
PO-34
1 25520U 98064B   06123.93268018  .00000851  00000-0  32555-4 0 04588
2 25520 028.4601 327.1955 0005806 118.4937 241.6241 15.16692063415325
ISS
1 25544U 98067A   06124.98932131  .00287094  00000-0  18258-2 0  8691
2 25544 051.6393 049.8334 0009469 163.6859 298.8460 15.75007241426355
OO-38
1 26063U 00004C   06123.76295463  .00000025  00000-0  28776-4 0  6083
2 26063 100.1881 046.8082 0036607 232.1364 127.6511 14.35763232328292
NO-45
1 26932U 01043D   06123.58786250 -.00000064  00000-0  75101-5 0  3054
2 26932 067.0546 122.2530 0008805 271.0257 088.9838 14.29522831239591
UWE-1
1 28892U 05043C   06123.35570427  .00000137  00000-0  38734-4 0  4407
2 28892 098.1675 022.2877 0016831 314.0973 045.8830 14.59341608 27436
CO-58
1 28895U 05043F   06123.75989659  .00000228  00000-0  57944-4 0  4231
2 28895 098.1696 022.7501 0017319 312.9401 047.0363 14.59396929 27370
NCUBE2
1 28897U 05043H   06122.50789162  .00000228  00000-0  57659-4 0   624
2 28897 098.1687 021.5103 0016950 319.5734 040.4231 14.59549859 19463
